Location: Gleizolles
(44.4833°N, 6.7667°E)
Time: 23:35:47
(UTC+00:00)

Courier 1B Rocket - Pass Details

Date: 25 June 2024
Orbit: 920 x 1201 km, 28.3° (Epoch: 23 July)

Event Time Altitude Azimuth Distance (km) Brightness Sun altitude
Exits shadow 02:49:53 11° 221° (SW) 2,684 6.6 -8.9°
Maximum altitude 02:54:13 20° 179° (S) 2,178 6.5 -8.4°
Drops below altitude 10° 02:59:00 10° 135° (SE) 2,881 7.5 -7.8°
Sets 03:02:38 0° 119° (ESE) 3,893 8.4 -7.3°
